Location: Acton
(51.4942°N, 0.2232°W)
Time: 05:28:19
(UTC+00:00)

COSMO-SKYMED 1 - Pass Details

Date: 18 September 2020
Orbit: 621 x 623 km, 97.9° (Epoch: 20 October)

Event Time Altitude Azimuth Distance (km) Brightness Sun altitude
Rises 19:07:09 0° 7° (N) 2,918 6.1 -10.0°
Reaches altitude 10° 19:09:30 10° 359° (N) 2,006 5.4 -10.3°
Maximum altitude 19:13:26 34° 294° (WNW) 1,029 4.5 -10.9°
Drops below altitude 10° 19:17:21 10° 230° (SW) 1,992 5.6 -11.5°
Sets 19:19:40 0° 221° (SW) 2,893 6.3 -11.9°
